Regional Weather Roundup
Issued by NWS Wilmington, NC

Current Version | Previous Version | Text Only | Print | Product List | Glossary On
Versions: 1 2 3 4 5 6 7 8 9 10 11 12 13 14 15 16 17 18 19 20 21 22 23 24 25 26 27 28 29 30 31 32 33 34 35 36 37 38 39 40 41 42 43 44 45 46 47 48 49 50
000
ASUS42 KILM 250613
RWRILM
RWRILM
REGIONAL HOURLY WEATHER ROUNDUP
NATIONAL WEATHER SERVICE WILMINGTON NC
200 AM EDT MON SEP 25 2017

NOTE: "FAIR" INDICATES FEW OR NO CLOUDS BELOW 12,000 FEET WITH NO
SIGNIFICANT WEATHER AND/OR OBSTRUCTIONS TO VISIBILITY.

...............WFO WILMINGTON COUNTY WARNING AREA...............

......COASTAL NC AND SC COUNTIES......

CITY           SKY/WX    TMP DP  RH WIND       PRES   REMARKS
WILMINGTON     PTCLDY    70  65  84 N9        29.92F
N MYRTLE BEACH CLOUDY    73  65  75 NE13      29.91F
MYRTLE BEACH   CLOUDY    74  64  71 NE13      29.92F

......INLAND NC AND SC COUNTIES.......

CITY           SKY/WX    TMP DP  RH WIND       PRES   REMARKS
LUMBERTON      NOT AVBL
ELIZABETHTOWN  NOT AVBL
WHITEVILLE     CLOUDY    71  65  80 N5        29.93F
FLORENCE       MOCLDY    72  65  78 NE8       29.94F
DARLINGTON     CLOUDY    69  64  84 N7        29.96F
KINGSTREE      FAIR      70  64  83 N3        29.93S
HARTSVILLE     FAIR      70  61  73 NE8       29.95F
BENNETTSVILLE  FAIR      70  64  83 NE7       29.95F
CONWAY         FAIR      72  64  78 N6        29.92S
GEORGETOWN     FAIR      72  70  94 N6        29.91F
MARION         FAIR      70  63  78 NE5       29.94S

....................REST OF NORTH CAROLINA......................

.........EASTERN NC.........

CITY           SKY/WX    TMP DP  RH WIND       PRES   REMARKS
CAPE HATTERAS  MOCLDY    73  70  90 NE9G21    29.93S
JACKSONVILLE   MOCLDY    68  65  90 N5        29.95S
MOREHEAD CITY  PTCLDY    73  72  96 NE9       29.91F
KENANSVILLE    FOG       66  63  88 N3        29.96S VSB 3/4
NEW BERN       CLOUDY    71  69  93 NE7       29.96S
ELIZABETH CITY PTCLDY    71  70  96 NE10      29.98R

.........CENTRAL NC.........

CITY           SKY/WX    TMP DP  RH WIND       PRES   REMARKS
RALEIGH DURHAM CLOUDY    66  60  81 CALM      30.00F
ROCKY MOUNT    CLEAR     63  61  93 NE6       29.99F
ROANOKE RAPIDS NOT AVBL
FAYETTEVILLE   CLOUDY    67  63  87 NE7       29.96F
HOFFMAN        CLOUDY    69  60  71 NE6       29.97F

.........WESTERN NC.........

CITY           SKY/WX    TMP DP  RH WIND       PRES   REMARKS
CHARLOTTE      MOCLDY    67  63  87 N8        30.02F
GREENSBORO     PTCLDY    69  64  84 NE3       30.03F
HICKORY        NOT AVBL
BOONE          NOT AVBL
ASHEVILLE      NOT AVBL

.....................REST OF SOUTH CAROLINA.....................

.........EASTERN SC.........

CITY           SKY/WX    TMP DP  RH WIND       PRES   REMARKS
CHARLESTON     CLOUDY    72  68  87 N5        29.91S
BEAUFORT MCAS  PTCLDY    75  72  90 NW3       29.92S
HILTON HEAD    PTCLDY    75  73  94 N6        29.92S

.........CENTRAL SC.........

CITY           SKY/WX    TMP DP  RH WIND       PRES   REMARKS
COLUMBIA       PTCLDY    75  65  70 N3        29.95S
ORANGEBURG     MOCLDY    71  67  87 NW3       29.94F
SUMTER SHAW    CLOUDY    69  63  81 NE7       29.92F

.........WESTERN SC.........

CITY           SKY/WX    TMP DP  RH WIND       PRES   REMARKS
GREENVILLE     NOT AVBL
ROCK HILL        N/A    N/A N/A N/A MISG      30.01F
ANDERSON       PTCLDY    71  65  81 VRB3      30.01S
CLEMSON        NOT AVBL
GREENWOOD      PTCLDY    67  65  93 N5        30.00F


...................COASTAL AND OFFSHORE REPORTS..................

................LOCAL PIERS AND NC RESERVE................


STATION/POSITION TIME  SKY/WX   TEMP    WIND        PRES    VSBY
                                AIR SEA DIR/SP/G
                 (UTC)          (F)     (DEG/KT/KT) (MB)    (MI)
JOHNY MRCER PIER 0524            72 81  360/ 12/ 17 1012.1
NC RESRV MASNBRO 0445            73      30/  1     1014.0
OCEAN CREST PIER NOT AVBL
SPRINGMAID  PIER 0524                               1012.3


................COASTAL AND OFFSHORE BUOYS................


STATION/POSITION TIME  SKY/WX   TEMP    WIND        PRES    VSBY
                                AIR SEA DIR/SP/G
                 (UTC)          (F)     (DEG/KT/KT) (MB)    (MI)
DIMNDSHOAL 41025 0550            75 80   30/ 21/ 25 1012.2F
WVE H/P(F/S)= 11/15 SWL H/P/D(F/S/D)= 10/150/15

CAPE LOOKOUT     0600            75      30/ 21/ 24 1012.5F
ONSLOW BAY 41036 NOT AVBL
ONSLOW BAY 41064 0508            76      40/ 19/ 25 1012.0
ONSLOW BAY 41159 NOT AVBL
MASNBO INL 41110 0529               78                N/A
WVE H/P(F/S)=  7/15 SWL H/P/D(F/S/D)=  5/140/15

WILM HARBR 41108 0530               79                N/A
WVE H/P(F/S)=  6/15 SWL H/P/D(F/S/D)=  3/160/15

27SE WRITB 41037 0508            76 80   60/ 19/ 25 1011.9F
FRYING PAN 41013 0600            78      30/ 21/ 25 1011.2
SUNST NRSH 41024 NOT AVBL
CAPRS NRSH 41029 0508            76 80   30/ 16/ 21 1011.7
EDISTO     41004 0550            79      30/ 17/ 23 1010.5F
WVE H/P(F/S)= 11/14 SWL H/P/D(F/S/D)= 10/120/14



..........OFFSHORE BUOYS BEYOND 100 NM OFFSHORE...........
.....IN A TRIANGLE---HAT TO BERMUDA TO BAHAMAS TO HAT.....


STATION/POSITION TIME  SKY/WX   TEMP    WIND        PRES    VSBY
                                AIR SEA DIR/SP/G
                 (UTC)          (F)     (DEG/KT/KT) (MB)    (MI)
150E HAT   41001 NOT AVBL
W BERMUDA  41048 0600            82 80  140/ 27/ 37 1008.0
ATLANTIC S 41049 0550            81 83  120/ 12/ 14 1017.3F
WVE H/P(F/S)=  6/11 SWL H/P/D(F/S/D)=  7/260/11

E BAHAMAS  41046 0600            83     170/ 16/ 19 1013.9
NE BAHAMAS 41047 0600            81 79  200/ 29/ 37 1005.9
120E CANVRL41010 0550                    10/ 16/ 19 1009.3F
WVE H/P(F/S)= 10/13 SWL H/P/D(F/S/D)=  8/13


END



USA.gov is the U.S. government's official web portal to all federal, state and local government web resources and services.